AZERSPACE 1

Last updated on Sat Apr 13 2024 01:02:38 GMT+0100 (British Summer Time)

1 39079U 13006B 24103.15188157 .00000125 00000+0 00000+0 0 9990 2 39079 0.0368 82.5032 0001457 315.9172 263.0571 1.00271479 40821
UTC large
Height (km)
Speed (km/s)
/
Latitude / Longitude
Inclination (degrees)
Orbital Period (minutes)
Azimuth
Elevation
Range (km)
Doppler Factor

Next 0 passes for location: London (51.5072 / 0.1276)

Sorry there are no passes over London.